{"data":{"norad_id":62212,"intl_designator":"2024-229W","name":"STARLINK-32668","alt_names":[],"object_type":"PAYLOAD","status":"ACTIVE","operator":null,"country":"US","launch_date":"2024-12-04","launch_site_code":"AFETR","launch_vehicle":null,"mission":null,"orbit_class":"UNKNOWN","rcs_meters":null,"size_class":null,"mass_kg":null,"dimensions":null,"purposes":["comms"],"wikipedia_slug":null,"has_3d_model":false,"image_url":null,"decayed_at":null,"tle_current":{"epoch":"2026-09-21T08:34:47.370144Z","epoch_age_seconds":104137,"freshness":"FRESH","line1":"1 62212U 24229W   26264.35749271  .00008877  00000+0  33205-3 0  9995","line2":"2 62212  43.0021 242.4568 0003031 279.0149  81.0359 15.27545332100526","mean_motion":15.27545332,"eccentricity":0.0003031,"inclination_deg":43.0021,"raan_deg":242.4568,"arg_perigee_deg":279.0149,"mean_anomaly_deg":81.0359,"bstar":0.00033205,"rev_number":10052,"period_min":94.268888119649,"perigee_km":481.07324949604,"apogee_km":485.23256343734,"semimajor_km":6861.2899064667,"source":"CELESTRAK","updated_at":"2026-09-22T09:00:49.543216Z"}}}